Joplin, MO

8:27 PM CDT on August 24, 2019 (GMT -0500)
Joplin Regional

Weather History for KJLN - July, 2019

Change the Weather History Date:

Sunday, July 21, 2019

  Actual Average Record
Temperature  
Mean Temperature 81 °F 81 °F  
Max Temperature 93 °F 91 °F 102 °F (1974)
Min Temperature 69 °F 70 °F 52 °F (1970)
Degree Days  
Heating Degree Days 0 0  
Month to date heating degree days 0 0  
Since 1 June heating degree days 1 5  
Since 1 July heating degree days 0 0  
Cooling Degree Days 16 16  
Month to date cooling degree days 318 315  
Year to date cooling degree days 746 813  
Since 1 June cooling degree days 593 633  
Growing Degree Days 30 (Base 50)    
Moisture  
Dew Point 72 °F    
Average Humidity 73    
Maximum Humidity 93    
Minimum Humidity 52    
Precipitation  
Precipitation 1.16 in 0.12 in 2.75 in (1994)
Month to date precipitation 4.87 2.76  
Year to date precipitation 41.51 26.57  
Sea Level Pressure  
Sea Level Pressure 29.93 in    
Wind  
Wind Speed 6 mph (SSW)    
Max Wind Speed 23 mph    
Max Gust Speed 35 mph    
Visibility 8 miles    
Events Fog , Rain , Thunderstorm    
T = Trace of Precipitation, MM = Missing Value Source: NWS Daily Summary

Daily Weather History Graph

Daily Weather History Graph

Search for Another Location

Airport or City:

Astronomy

Jul. 21, 2019 Rise Set
Actual Time 6:14 AM CDT 8:34 PM CDT
Civil Twilight 5:44 AM CDT 9:04 PM CDT
Nautical Twilight 5:07 AM CDT 9:40 PM CDT
Astronomical Twilight 4:27 AM CDT 10:20 PM CDT
Moon 11:35 PM CDT (7/21) 10:30 AM CDT (7/21)
Length of Visible Light 15h 19m
Length of Day
14h 20m
Waning Gibbous, 80% of the Moon is Illuminated
Jul 21
Waning Gibbous
Jul 24
Last Quarter
Jul 31
New
Aug 7
First Quarter
Aug 15
Full

Hourly Weather History & Observations

Time (CDT) Temp. Heat Index Dew Point Humidity Pressure Visibility Wind Dir Wind Speed Gust Speed Precip Events Conditions
12:53 AM 80.1 °F 83.8 °F 72.0 °F 76% 29.91 in 10.0 mi South 11.5 mph - N/A   Clear
1:53 AM 78.1 °F - 72.0 °F 81% 29.92 in 10.0 mi SSE 8.1 mph - N/A   Clear
2:53 AM 77.0 °F - 72.0 °F 84% 29.89 in 10.0 mi South 11.5 mph - N/A   Clear
3:53 AM 78.1 °F - 72.0 °F 81% 29.91 in 10.0 mi South 8.1 mph - N/A   Clear
4:53 AM 77.0 °F - 72.0 °F 84% 29.92 in 10.0 mi South 5.8 mph - N/A   Clear
5:53 AM 75.0 °F - 72.0 °F 90% 29.94 in 10.0 mi SE 4.6 mph - N/A   Clear
6:53 AM 73.9 °F - 71.1 °F 91% 29.96 in 10.0 mi SE 4.6 mph - N/A   Clear
7:53 AM 78.1 °F - 73.0 °F 84% 29.96 in 10.0 mi Variable 4.6 mph - N/A   Clear
8:53 AM 82.9 °F 88.8 °F 73.0 °F 72% 29.95 in 10.0 mi Calm Calm - N/A   Clear
9:53 AM 84.0 °F 90.2 °F 73.0 °F 69% 29.94 in 10.0 mi Variable 4.6 mph - N/A   Clear
10:53 AM 87.1 °F 94.5 °F 73.0 °F 63% 29.93 in 10.0 mi SSW 11.5 mph - N/A   Clear
11:53 AM 89.1 °F 97.0 °F 73.0 °F 59% 29.92 in 10.0 mi SSW 12.7 mph 18.4 mph N/A   Clear
12:53 PM 91.0 °F 99.3 °F 73.0 °F 55% 29.92 in 10.0 mi SSW 8.1 mph - N/A   Clear
1:53 PM 91.0 °F 100.4 °F 73.9 °F 57% 29.90 in 10.0 mi South 4.6 mph - N/A   Clear
2:53 PM 91.9 °F 99.5 °F 72.0 °F 52% 29.89 in 10.0 mi South 4.6 mph - N/A   Clear
3:53 PM 91.9 °F 101.3 °F 73.9 °F 55% 29.89 in 10.0 mi South 4.6 mph - N/A   Mostly Cloudy
4:53 PM 91.0 °F 99.3 °F 73.0 °F 55% 29.88 in 10.0 mi Variable 4.6 mph - N/A   Partly Cloudy
5:53 PM 91.0 °F 101.6 °F 75.0 °F 59% 29.88 in 10.0 mi South 4.6 mph - N/A   Clear
6:53 PM 90.0 °F 99.0 °F 73.9 °F 59% 29.86 in 10.0 mi South 4.6 mph - N/A   Clear
7:53 PM 87.1 °F 95.4 °F 73.9 °F 65% 29.86 in 10.0 mi South 4.6 mph - N/A   Clear
8:53 PM 84.9 °F 92.1 °F 73.9 °F 69% 29.85 in 10.0 mi South 5.8 mph - N/A   Clear
9:53 PM 80.1 °F 83.6 °F 71.1 °F 74% 29.89 in 10.0 mi North 12.7 mph 19.6 mph N/A   Overcast
10:09 PM 78.1 °F - 69.1 °F 74% 29.92 in 10.0 mi NNE 15.0 mph 23.0 mph N/A Thunderstorm Overcast
10:22 PM 75.9 °F - 69.1 °F 79% 29.99 in 7.0 mi WNW 20.7 mph 35.7 mph N/A Thunderstorm Thunderstorm
10:26 PM 73.0 °F - 70.0 °F 90% 29.98 in 1.8 mi WNW 19.6 mph 35.7 mph 0.10 in Rain , Thunderstorm Thunderstorms and Rain
10:29 PM 72.0 °F - 70.0 °F 93% 29.99 in 0.8 mi NW 23.0 mph 35.7 mph 0.28 in Rain , Thunderstorm Heavy Thunderstorms and Rain
10:37 PM 71.1 °F - 70.0 °F 96% 30.00 in 0.5 mi NW 15.0 mph 31.1 mph 0.80 in Fog , Rain , Thunderstorm Heavy Thunderstorms and Rain
10:42 PM 72.0 °F - 71.1 °F 97% 30.01 in 0.8 mi NNW 13.8 mph - 0.87 in Rain , Thunderstorm Heavy Thunderstorms and Rain
10:50 PM 71.6 °F - 69.8 °F 94% 30.00 in 2.0 mi NNW 8.1 mph 25.3 mph 0.95 in Rain , Thunderstorm Heavy Thunderstorms and Rain
10:53 PM 71.1 °F - 70.0 °F 96% 29.96 in 2.0 mi North 9.2 mph 25.3 mph 0.95 in Rain , Thunderstorm Heavy Thunderstorms and Rain
11:02 PM 70.0 °F - 68.0 °F 93% 29.97 in 7.0 mi ENE 3.5 mph - 0.01 in Rain , Thunderstorm Light Thunderstorms and Rain
11:12 PM 70.0 °F - 66.9 °F 90% 29.96 in 9.0 mi NNE 5.8 mph - 0.02 in Rain , Thunderstorm Light Rain
11:44 PM 70.0 °F - 68.0 °F 93% 29.97 in 5.0 mi SW 4.6 mph - 0.07 in Rain , Thunderstorm Thunderstorms and Rain
11:53 PM 70.0 °F - 69.1 °F 97% 29.94 in 5.0 mi SW 8.1 mph - 0.10 in Rain , Thunderstorm Thunderstorms and Rain